Time,TemperatureF,DewpointF,PressureIn,WindDirection,WindDirectionDegrees,WindSpeedMPH,WindSpeedGustMPH,Humidity,HourlyPrecipIn,Conditions,Clouds,dailyrainin,SoftwareType,DateUTC
2013-02-19 00:03:00,40.3,3.5,25.28,WSW,245,4.0,4.0,21,0.00,,---,0.00,VWS V14.00,2013-02-19 07:03:00,
2013-02-19 00:08:00,39.9,3.2,25.28,WSW,245,2.7,3.1,21,0.00,,---,0.00,VWS V14.00,2013-02-19 07:08:00,
2013-02-19 00:13:00,39.4,2.7,25.28,WSW,245,4.0,4.0,21,0.00,,---,0.00,VWS V14.00,2013-02-19 07:13:00,
2013-02-19 00:18:00,39.0,2.4,25.28,WSW,245,4.9,4.9,21,0.00,,---,0.00,VWS V14.00,2013-02-19 07:18:00,
2013-02-19 00:23:00,39.0,2.4,25.28,WSW,244,5.4,5.8,21,0.00,,---,0.00,VWS V14.00,2013-02-19 07:23:00,
2013-02-19 00:28:00,39.6,2.9,25.25,WSW,245,5.4,5.4,21,0.00,,---,0.00,VWS V14.00,2013-02-19 07:28:00,
2013-02-19 00:33:00,39.7,3.0,25.25,WSW,244,5.4,5.4,21,0.00,,---,0.00,VWS V14.00,2013-02-19 07:33:00,
2013-02-19 00:39:00,39.9,3.2,25.25,WSW,244,4.9,6.3,21,0.00,,---,0.00,VWS V14.00,2013-02-19 07:39:00,
2013-02-19 00:44:00,40.3,3.5,25.25,WSW,248,5.8,6.3,21,0.00,,---,0.00,VWS V14.00,2013-02-19 07:44:00,
2013-02-19 00:49:00,40.8,3.9,25.25,WSW,250,5.4,5.8,21,0.00,,---,0.00,VWS V14.00,2013-02-19 07:49:00,
2013-02-19 00:54:00,40.6,3.8,25.25,WSW,244,4.9,4.9,21,0.00,,---,0.00,VWS V14.00,2013-02-19 07:54:00,
2013-02-19 00:59:00,40.8,3.9,25.28,SW,235,4.0,4.0,21,0.00,,---,0.00,VWS V14.00,2013-02-19 07:59:00,
2013-02-19 01:04:00,41.5,4.5,25.28,SW,232,4.0,4.0,21,0.00,,---,0.00,VWS V14.00,2013-02-19 08:04:00,
2013-02-19 01:09:00,42.3,5.1,25.28,SW,216,4.9,4.9,21,0.00,,---,0.00,VWS V14.00,2013-02-19 08:09:00,
2013-02-19 01:14:00,43.0,4.7,25.28,SW,216,0.0,2.7,20,0.00,,---,0.00,VWS V14.00,2013-02-19 08:14:00,
2013-02-19 01:19:00,42.4,5.3,25.28,SW,215,0.0,0.0,21,0.00,,---,0.00,VWS V14.00,2013-02-19 08:19:00,
2013-02-19 01:24:00,41.5,4.5,25.28,SW,215,0.0,0.0,21,0.00,,---,0.00,VWS V14.00,2013-02-19 08:24:00,
2013-02-19 01:29:00,41.0,4.1,25.25,SW,215,0.0,0.0,21,0.00,,---,0.00,VWS V14.00,2013-02-19 08:29:00,
2013-02-19 01:34:00,40.8,3.9,25.25,SW,216,3.1,3.6,21,0.00,,---,0.00,VWS V14.00,2013-02-19 08:34:00,
2013-02-19 01:39:00,40.6,3.8,25.25,WNW,303,2.7,4.0,21,0.00,,---,0.00,VWS V14.00,2013-02-19 08:39:00,
2013-02-19 01:44:00,40.5,3.6,25.25,WNW,293,2.7,2.7,21,0.00,,---,0.00,VWS V14.00,2013-02-19 08:44:00,
2013-02-19 01:49:00,41.4,4.4,25.25,West,265,4.9,5.4,21,0.00,,---,0.00,VWS V14.00,2013-02-19 08:49:00,
2013-02-19 01:54:00,41.2,4.2,25.25,West,265,0.0,0.0,21,0.00,,---,0.00,VWS V14.00,2013-02-19 08:54:00,
2013-02-19 01:59:00,41.7,4.7,25.25,WSW,254,3.6,3.6,21,0.00,,---,0.00,VWS V14.00,2013-02-19 08:59:00,
2013-02-19 02:04:00,40.8,3.9,25.25,WSW,253,3.6,4.0,21,0.00,,---,0.00,VWS V14.00,2013-02-19 09:04:00,
2013-02-19 02:09:00,39.4,2.7,25.25,WSW,252,3.6,3.6,21,0.00,,---,0.00,VWS V14.00,2013-02-19 09:09:00,
2013-02-19 02:14:00,38.3,1.8,25.25,WSW,248,4.0,4.0,21,0.00,,---,0.00,VWS V14.00,2013-02-19 09:14:00,
2013-02-19 02:19:00,38.1,1.6,25.25,WSW,247,5.4,5.8,21,0.00,,---,0.00,VWS V14.00,2013-02-19 09:19:00,
2013-02-19 02:24:00,37.8,1.4,25.25,WSW,252,4.9,5.4,21,0.00,,---,0.00,VWS V14.00,2013-02-19 09:24:00,
2013-02-19 02:29:00,37.2,1.9,25.25,WSW,247,3.6,3.6,22,0.00,,---,0.00,VWS V14.00,2013-02-19 09:29:00,
2013-02-19 02:34:00,36.7,1.4,25.25,WSW,246,2.7,3.1,22,0.00,,---,0.00,VWS V14.00,2013-02-19 09:34:00,
2013-02-19 02:39:00,36.3,1.1,25.25,WSW,244,0.0,0.0,22,0.00,,---,0.00,VWS V14.00,2013-02-19 09:39:00,
2013-02-19 02:44:00,36.1,1.0,25.25,WSW,244,4.0,4.0,22,0.00,,---,0.00,VWS V14.00,2013-02-19 09:44:00,
2013-02-19 02:49:00,36.3,1.1,25.25,WSW,244,2.7,4.0,22,0.00,,---,0.00,VWS V14.00,2013-02-19 09:49:00,
2013-02-19 02:54:00,36.7,1.4,25.25,WSW,244,0.0,0.0,22,0.00,,---,0.00,VWS V14.00,2013-02-19 09:54:00,
2013-02-19 02:59:00,36.7,1.4,25.25,WSW,244,0.0,0.0,22,0.00,,---,0.00,VWS V14.00,2013-02-19 09:59:00,
2013-02-19 03:04:00,36.7,1.4,25.25,WSW,244,0.0,0.0,22,0.00,,---,0.00,VWS V14.00,2013-02-19 10:04:00,
2013-02-19 03:09:00,37.0,1.7,25.25,WSW,244,0.0,0.0,22,0.00,,---,0.00,VWS V14.00,2013-02-19 10:09:00,
2013-02-19 03:14:00,38.7,2.1,25.25,WSW,244,0.0,0.0,21,0.00,,---,0.00,VWS V14.00,2013-02-19 10:14:00,
2013-02-19 03:19:00,38.7,2.1,25.25,WSW,244,3.1,4.0,21,0.00,,---,0.00,VWS V14.00,2013-02-19 10:19:00,
2013-02-19 03:24:00,37.6,1.2,25.22,WSW,244,0.0,0.0,21,0.00,,---,0.00,VWS V14.00,2013-02-19 10:24:00,
2013-02-19 03:29:00,37.9,1.5,25.22,WSW,244,0.0,0.0,21,0.00,,---,0.00,VWS V14.00,2013-02-19 10:29:00,
2013-02-19 03:34:00,37.2,1.9,25.22,WSW,244,2.7,4.0,22,0.00,,---,0.00,VWS V14.00,2013-02-19 10:34:00,
2013-02-19 03:39:00,36.9,1.6,25.22,WSW,244,0.0,0.0,22,0.00,,---,0.00,VWS V14.00,2013-02-19 10:39:00,
2013-02-19 03:44:00,36.3,1.1,25.22,WSW,247,4.0,5.4,22,0.00,,---,0.00,VWS V14.00,2013-02-19 10:44:00,
2013-02-19 03:49:00,36.0,0.8,25.22,WSW,247,0.0,0.0,22,0.00,,---,0.00,VWS V14.00,2013-02-19 10:49:00,
2013-02-19 03:55:00,36.0,0.8,25.22,WSW,247,0.0,0.0,22,0.00,,---,0.00,VWS V14.00,2013-02-19 10:55:00,
2013-02-19 04:00:00,35.8,0.7,25.22,WSW,245,3.6,5.4,22,0.00,,---,0.00,VWS V14.00,2013-02-19 11:00:00,
2013-02-19 04:05:00,35.6,0.5,25.22,WSW,245,3.6,3.6,22,0.00,,---,0.00,VWS V14.00,2013-02-19 11:05:00,
2013-02-19 04:10:00,35.2,0.2,25.22,WSW,245,3.1,3.1,22,0.00,,---,0.00,VWS V14.00,2013-02-19 11:10:00,
2013-02-19 04:15:00,34.9,-0.1,25.22,WSW,245,0.0,0.0,22,0.00,,---,0.00,VWS V14.00,2013-02-19 11:15:00,
2013-02-19 04:20:00,34.7,-0.2,25.22,WSW,245,0.0,0.0,22,0.00,,---,0.00,VWS V14.00,2013-02-19 11:20:00,
2013-02-19 04:25:00,34.3,-0.6,25.22,WSW,241,0.0,0.0,22,0.00,,---,0.00,VWS V14.00,2013-02-19 11:25:00,
2013-02-19 04:30:00,34.2,-0.7,25.22,WSW,240,4.5,4.9,22,0.00,,---,0.00,VWS V14.00,2013-02-19 11:30:00,
2013-02-19 04:35:00,34.2,-0.7,25.22,WSW,239,4.0,4.5,22,0.00,,---,0.00,VWS V14.00,2013-02-19 11:35:00,
2013-02-19 04:40:00,34.5,-0.4,25.22,WSW,240,3.1,3.6,22,0.00,,---,0.00,VWS V14.00,2013-02-19 11:40:00,
2013-02-19 04:45:00,34.5,-0.4,25.22,WSW,240,4.0,4.0,22,0.00,,---,0.00,VWS V14.00,2013-02-19 11:45:00,
2013-02-19 04:50:00,34.9,-0.1,25.22,WSW,240,4.0,4.5,22,0.00,,---,0.00,VWS V14.00,2013-02-19 11:50:00,
2013-02-19 04:55:00,35.2,0.2,25.22,WSW,240,0.0,0.0,22,0.00,,---,0.00,VWS V14.00,2013-02-19 11:55:00,
2013-02-19 05:00:00,36.1,1.0,25.22,WSW,240,0.0,0.0,22,0.00,,---,0.00,VWS V14.00,2013-02-19 12:00:00,
2013-02-19 05:05:00,36.9,1.6,25.22,WSW,240,0.0,0.0,22,0.00,,---,0.00,VWS V14.00,2013-02-19 12:05:00,
2013-02-19 05:10:00,36.9,1.6,25.22,WSW,239,3.6,4.5,22,0.00,,---,0.00,VWS V14.00,2013-02-19 12:10:00,
2013-02-19 05:15:00,36.5,1.3,25.22,WSW,240,4.5,4.5,22,0.00,,---,0.00,VWS V14.00,2013-02-19 12:15:00,
2013-02-19 05:20:00,36.1,1.0,25.22,WSW,240,3.6,3.6,22,0.00,,---,0.00,VWS V14.00,2013-02-19 12:20:00,
2013-02-19 05:25:00,35.6,0.5,25.22,WSW,244,3.6,4.9,22,0.00,,---,0.00,VWS V14.00,2013-02-19 12:25:00,
2013-02-19 05:30:00,35.8,0.7,25.22,WSW,241,4.0,4.5,22,0.00,,---,0.00,VWS V14.00,2013-02-19 12:30:00,
2013-02-19 05:35:00,35.8,0.7,25.22,WSW,241,4.0,4.0,22,0.00,,---,0.00,VWS V14.00,2013-02-19 12:35:00,
2013-02-19 05:40:00,35.8,0.7,25.22,WSW,241,2.7,3.1,22,0.00,,---,0.00,VWS V14.00,2013-02-19 12:40:00,
2013-02-19 05:45:00,36.0,0.8,25.22,WSW,241,3.6,4.0,22,0.00,,---,0.00,VWS V14.00,2013-02-19 12:45:00,
2013-02-19 05:50:00,36.3,1.1,25.22,WSW,241,2.2,3.6,22,0.00,,---,0.00,VWS V14.00,2013-02-19 12:50:00,
2013-02-19 05:55:00,37.2,1.9,25.22,WSW,241,0.0,3.1,22,0.00,,---,0.00,VWS V14.00,2013-02-19 12:55:00,
2013-02-19 06:00:00,37.6,1.2,25.22,SW,232,2.7,3.6,21,0.00,,---,0.00,VWS V14.00,2013-02-19 13:00:00,
2013-02-19 06:05:00,38.5,2.0,25.22,SW,221,0.0,0.0,21,0.00,,---,0.00,VWS V14.00,2013-02-19 13:05:00,
2013-02-19 06:10:00,39.2,2.6,25.25,SW,221,0.0,0.0,21,0.00,,---,0.00,VWS V14.00,2013-02-19 13:10:00,
2013-02-19 06:15:00,39.7,3.0,25.25,SW,221,0.0,0.0,21,0.00,,---,0.00,VWS V14.00,2013-02-19 13:15:00,
2013-02-19 06:20:00,40.6,3.8,25.25,South,181,4.0,5.4,21,0.00,,---,0.00,VWS V14.00,2013-02-19 13:20:00,
2013-02-19 06:26:00,42.6,5.4,25.22,South,176,3.6,5.4,21,0.00,,---,0.00,VWS V14.00,2013-02-19 13:26:00,
2013-02-19 06:31:00,44.6,6.0,25.22,SSE,164,5.4,6.3,20,0.00,,---,0.00,VWS V14.00,2013-02-19 13:31:00,
2013-02-19 06:36:00,46.2,7.4,25.22,SE,146,3.1,4.0,20,0.00,,---,0.00,VWS V14.00,2013-02-19 13:36:00,
2013-02-19 06:41:00,46.6,6.5,25.22,SE,131,0.0,4.0,19,0.00,,---,0.00,VWS V14.00,2013-02-19 13:41:00,
2013-02-19 06:46:00,46.2,7.4,25.22,ESE,105,0.0,3.6,20,0.00,,---,0.00,VWS V14.00,2013-02-19 13:46:00,
2013-02-19 06:51:00,46.2,7.4,25.22,SE,143,0.0,0.0,20,0.00,,---,0.00,VWS V14.00,2013-02-19 13:51:00,
2013-02-19 06:56:00,46.0,7.2,25.22,SE,141,0.0,3.6,20,0.00,,---,0.00,VWS V14.00,2013-02-19 13:56:00,
2013-02-19 07:01:00,46.0,7.2,25.22,SE,146,0.0,0.0,20,0.00,,---,0.00,VWS V14.00,2013-02-19 14:01:00,
2013-02-19 07:06:00,46.0,7.2,25.22,SE,131,0.0,0.0,20,0.00,,---,0.00,VWS V14.00,2013-02-19 14:06:00,
2013-02-19 07:11:00,45.9,7.1,25.22,SSE,153,0.0,0.0,20,0.00,,---,0.00,VWS V14.00,2013-02-19 14:11:00,
2013-02-19 07:16:00,45.3,6.6,25.22,North,9,0.0,0.0,20,0.00,,---,0.00,VWS V14.00,2013-02-19 14:16:00,
2013-02-19 07:21:00,43.5,5.1,25.22,NW,323,0.0,0.0,20,0.00,,---,0.00,VWS V14.00,2013-02-19 14:21:00,
2013-02-19 07:26:00,42.8,4.5,25.22,NW,323,0.0,0.0,20,0.00,,---,0.00,VWS V14.00,2013-02-19 14:26:00,
2013-02-19 07:31:00,42.8,4.5,25.22,West,271,0.0,0.0,20,0.00,,---,0.00,VWS V14.00,2013-02-19 14:31:00,
2013-02-19 07:36:00,43.3,5.0,25.22,West,271,0.0,0.0,20,0.00,,---,0.00,VWS V14.00,2013-02-19 14:36:00,
2013-02-19 07:41:00,44.1,5.6,25.25,West,271,0.0,0.0,20,0.00,,---,0.00,VWS V14.00,2013-02-19 14:41:00,
2013-02-19 07:46:00,45.5,6.8,25.25,SE,134,0.0,0.0,20,0.00,,---,0.00,VWS V14.00,2013-02-19 14:46:00,
2013-02-19 07:51:00,46.8,6.7,25.25,SSE,165,0.0,0.0,19,0.00,,---,0.00,VWS V14.00,2013-02-19 14:51:00,
2013-02-19 07:56:00,48.0,7.7,25.22,SSE,151,0.0,0.0,19,0.00,,---,0.00,VWS V14.00,2013-02-19 14:56:00,
2013-02-19 08:01:00,48.9,8.5,25.22,ESE,106,0.0,3.1,19,0.00,,---,0.00,VWS V14.00,2013-02-19 15:01:00,
2013-02-19 08:06:00,49.8,9.2,25.22,ESE,106,0.0,0.0,19,0.00,,---,0.00,VWS V14.00,2013-02-19 15:06:00,
2013-02-19 08:11:00,50.5,9.8,25.22,NE,45,4.9,4.9,19,0.00,,---,0.00,VWS V14.00,2013-02-19 15:11:00,
2013-02-19 08:16:00,50.5,9.8,25.22,East,93,0.0,0.0,19,0.00,,---,0.00,VWS V14.00,2013-02-19 15:16:00,
2013-02-19 08:21:00,50.9,10.1,25.22,ESE,119,0.0,0.0,19,0.00,,---,0.00,VWS V14.00,2013-02-19 15:21:00,
2013-02-19 08:26:00,51.8,9.7,25.22,SE,126,0.0,0.0,18,0.00,,---,0.00,VWS V14.00,2013-02-19 15:26:00,
2013-02-19 08:31:00,52.9,10.6,25.22,South,169,0.0,0.0,18,0.00,,---,0.00,VWS V14.00,2013-02-19 15:31:00,
2013-02-19 08:36:00,53.8,11.3,25.22,SW,226,5.8,5.8,18,0.00,,---,0.00,VWS V14.00,2013-02-19 15:36:00,
2013-02-19 08:41:00,55.0,12.3,25.22,SSE,156,6.3,8.7,18,0.00,,---,0.00,VWS V14.00,2013-02-19 15:41:00,
2013-02-19 08:46:00,56.3,12.1,25.22,South,175,8.3,11.9,17,0.00,,---,0.00,VWS V14.00,2013-02-19 15:46:00,
2013-02-19 08:51:00,56.8,12.5,25.22,SSE,157,5.8,7.2,17,0.00,,---,0.00,VWS V14.00,2013-02-19 15:51:00,
2013-02-19 08:56:00,57.2,12.8,25.22,South,175,3.1,8.3,17,0.00,,---,0.00,VWS V14.00,2013-02-19 15:56:00,
2013-02-19 09:01:00,57.6,13.1,25.22,SE,146,8.3,8.3,17,0.00,,---,0.00,VWS V14.00,2013-02-19 16:01:00,
2013-02-19 09:06:00,57.9,13.4,25.22,South,171,6.3,7.6,17,0.00,,---,0.00,VWS V14.00,2013-02-19 16:06:00,
2013-02-19 09:11:00,58.3,13.7,25.22,South,180,11.0,11.0,17,0.00,,---,0.00,VWS V14.00,2013-02-19 16:11:00,
2013-02-19 09:16:00,58.5,13.8,25.22,South,188,10.5,10.5,17,0.00,,---,0.00,VWS V14.00,2013-02-19 16:16:00,
2013-02-19 09:22:00,58.3,13.7,25.22,SSE,159,10.5,10.5,17,0.00,,---,0.00,VWS V14.00,2013-02-19 16:22:00,
2013-02-19 09:27:00,58.5,13.8,25.22,South,173,7.6,8.3,17,0.00,,---,0.00,VWS V14.00,2013-02-19 16:27:00,
2013-02-19 09:32:00,59.0,14.3,25.22,SSE,166,6.3,7.6,17,0.00,,---,0.00,VWS V14.00,2013-02-19 16:32:00,
2013-02-19 09:37:00,59.4,14.6,25.22,South,185,8.3,8.7,17,0.00,,---,0.00,VWS V14.00,2013-02-19 16:37:00,
2013-02-19 09:42:00,59.7,14.9,25.22,SSE,156,8.7,10.5,17,0.00,,---,0.00,VWS V14.00,2013-02-19 16:42:00,
2013-02-19 09:47:00,60.3,15.3,25.22,SSE,156,6.3,6.3,17,0.00,,---,0.00,VWS V14.00,2013-02-19 16:47:00,
2013-02-19 09:52:00,60.8,14.4,25.22,SSW,206,8.3,10.5,16,0.00,,---,0.00,VWS V14.00,2013-02-19 16:52:00,
2013-02-19 09:57:00,60.8,14.4,25.22,ESE,119,12.8,15.9,16,0.00,,---,0.00,VWS V14.00,2013-02-19 16:57:00,
2013-02-19 10:02:00,60.4,15.4,25.22,SSE,168,11.0,12.8,17,0.00,,---,0.00,VWS V14.00,2013-02-19 17:02:00,
2013-02-19 10:08:00,59.7,14.9,25.22,South,179,10.1,10.1,17,0.00,,---,0.00,VWS V14.00,2013-02-19 17:08:00,
2013-02-19 10:14:00,59.5,14.7,25.22,SE,126,15.4,15.4,17,0.00,,---,0.00,VWS V14.00,2013-02-19 17:14:00,
2013-02-19 10:19:00,59.7,14.9,25.22,SSW,193,10.1,11.4,17,0.00,,---,0.00,VWS V14.00,2013-02-19 17:19:00,
2013-02-19 10:24:00,59.7,14.9,25.22,SSE,157,15.0,15.0,17,0.00,,---,0.00,VWS V14.00,2013-02-19 17:24:00,
2013-02-19 10:29:00,59.4,14.6,25.19,SSW,198,15.4,15.4,17,0.00,,---,0.00,VWS V14.00,2013-02-19 17:29:00,
2013-02-19 10:34:00,59.4,14.6,25.19,SSE,162,15.4,16.8,17,0.00,,---,0.00,VWS V14.00,2013-02-19 17:34:00,
2013-02-19 10:39:00,59.2,14.4,25.19,SSE,150,15.4,15.4,17,0.00,,---,0.00,VWS V14.00,2013-02-19 17:39:00,
2013-02-19 10:44:00,58.8,14.1,25.19,SSE,147,12.3,13.6,17,0.00,,---,0.00,VWS V14.00,2013-02-19 17:44:00,
2013-02-19 10:49:00,58.3,13.7,25.19,South,172,8.3,11.4,17,0.00,,---,0.00,VWS V14.00,2013-02-19 17:49:00,
2013-02-19 10:55:00,58.1,13.5,25.19,SSE,154,15.4,15.9,17,0.00,,---,0.00,VWS V14.00,2013-02-19 17:55:00,
2013-02-19 11:00:00,58.5,13.8,25.19,South,189,10.5,15.4,17,0.00,,---,0.00,VWS V14.00,2013-02-19 18:00:00,
2013-02-19 11:05:00,58.8,14.1,25.19,South,177,10.1,12.8,17,0.00,,---,0.00,VWS V14.00,2013-02-19 18:05:00,
2013-02-19 11:10:00,58.8,14.1,25.19,SSE,158,15.9,15.9,17,0.00,,---,0.00,VWS V14.00,2013-02-19 18:10:00,
2013-02-19 11:15:00,58.8,14.1,25.19,SSE,150,11.9,11.9,17,0.00,,---,0.00,VWS V14.00,2013-02-19 18:15:00,
2013-02-19 11:20:00,59.0,14.3,25.19,SSE,166,13.2,14.5,17,0.00,,---,0.00,VWS V14.00,2013-02-19 18:20:00,
2013-02-19 11:25:00,59.0,14.3,25.19,South,190,10.5,10.5,17,0.00,,---,0.00,VWS V14.00,2013-02-19 18:25:00,
2013-02-19 11:30:00,59.0,14.3,25.19,South,173,18.3,18.3,17,0.00,,---,0.00,VWS V14.00,2013-02-19 18:30:00,
2013-02-19 11:35:00,58.8,14.1,25.19,SE,130,15.4,16.8,17,0.00,,---,0.00,VWS V14.00,2013-02-19 18:35:00,
2013-02-19 11:40:00,58.8,14.1,25.19,SSE,157,14.1,15.0,17,0.00,,---,0.00,VWS V14.00,2013-02-19 18:40:00,
2013-02-19 11:46:00,58.8,14.1,25.19,South,169,13.2,16.8,17,0.00,,---,0.00,VWS V14.00,2013-02-19 18:46:00,
2013-02-19 11:51:00,59.2,14.4,25.19,South,186,13.2,15.0,17,0.00,,---,0.00,VWS V14.00,2013-02-19 18:51:00,
2013-02-19 11:56:00,59.4,14.6,25.19,South,170,9.6,10.1,17,0.00,,---,0.00,VWS V14.00,2013-02-19 18:56:00,
2013-02-19 12:01:00,59.7,14.9,25.19,South,184,15.4,15.4,17,0.00,,---,0.00,VWS V14.00,2013-02-19 19:01:00,
2013-02-19 12:06:00,59.9,15.0,25.19,South,184,8.7,8.7,17,0.00,,---,0.00,VWS V14.00,2013-02-19 19:06:00,
2013-02-19 12:11:00,60.1,15.1,25.16,South,175,15.4,17.4,17,0.00,,---,0.00,VWS V14.00,2013-02-19 19:11:00,
2013-02-19 12:16:00,59.7,14.9,25.16,SSE,153,17.4,18.8,17,0.00,,---,0.00,VWS V14.00,2013-02-19 19:16:00,
2013-02-19 12:21:00,59.7,14.9,25.16,SSW,195,12.8,15.9,17,0.00,,---,0.00,VWS V14.00,2013-02-19 19:21:00,
2013-02-19 12:26:00,60.1,15.1,25.16,SSE,147,21.0,21.0,17,0.00,,---,0.00,VWS V14.00,2013-02-19 19:26:00,
2013-02-19 12:31:00,60.3,15.3,25.16,South,172,8.7,11.9,17,0.00,,---,0.00,VWS V14.00,2013-02-19 19:31:00,
2013-02-19 12:37:00,60.1,15.1,25.16,SSW,199,14.1,17.4,17,0.00,,---,0.00,VWS V14.00,2013-02-19 19:37:00,
2013-02-19 12:42:00,59.7,14.9,25.16,South,188,12.8,14.5,17,0.00,,---,0.00,VWS V14.00,2013-02-19 19:42:00,
2013-02-19 12:47:00,60.1,15.1,25.16,SE,135,13.2,15.4,17,0.00,,---,0.00,VWS V14.00,2013-02-19 19:47:00,
2013-02-19 12:52:00,60.4,15.4,25.16,SSW,197,10.1,14.1,17,0.00,,---,0.00,VWS V14.00,2013-02-19 19:52:00,
2013-02-19 12:57:00,60.4,15.4,25.16,South,189,8.3,12.3,17,0.00,,---,0.00,VWS V14.00,2013-02-19 19:57:00,
2013-02-19 13:02:00,59.9,17.6,25.16,South,171,8.3,11.4,19,0.00,,---,0.00,VWS V14.00,2013-02-19 20:02:00,
2013-02-19 13:07:00,59.5,14.7,25.16,SSE,163,11.0,15.0,17,0.00,,---,0.00,VWS V14.00,2013-02-19 20:07:00,
2013-02-19 13:12:00,59.7,17.4,25.13,SSE,154,15.4,15.4,19,0.00,,---,0.00,VWS V14.00,2013-02-19 20:12:00,
2013-02-19 13:18:00,59.9,15.0,25.13,SSE,159,13.6,15.0,17,0.00,,---,0.00,VWS V14.00,2013-02-19 20:18:00,
2013-02-19 13:23:00,60.1,15.1,25.13,South,171,10.5,16.3,17,0.00,,---,0.00,VWS V14.00,2013-02-19 20:23:00,
2013-02-19 13:28:00,60.4,18.0,25.13,South,169,11.0,15.4,19,0.00,,---,0.00,VWS V14.00,2013-02-19 20:28:00,
2013-02-19 13:33:00,60.8,18.3,25.13,SSW,208,14.1,14.1,19,0.00,,---,0.00,VWS V14.00,2013-02-19 20:33:00,
2013-02-19 13:38:00,61.7,19.0,25.13,SSE,167,17.4,19.7,19,0.00,,---,0.00,VWS V14.00,2013-02-19 20:38:00,
2013-02-19 13:43:00,61.7,19.0,25.13,South,180,13.6,24.2,19,0.00,,---,0.00,VWS V14.00,2013-02-19 20:43:00,
2013-02-19 13:48:00,61.7,19.0,25.13,SW,222,14.5,19.7,19,0.00,,---,0.00,VWS V14.00,2013-02-19 20:48:00,
2013-02-19 13:53:00,62.1,19.3,25.13,SW,215,15.0,15.0,19,0.00,,---,0.00,VWS V14.00,2013-02-19 20:53:00,
2013-02-19 13:58:00,61.9,19.2,25.13,South,178,10.1,14.5,19,0.00,,---,0.00,VWS V14.00,2013-02-19 20:58:00,
2013-02-19 14:04:00,60.6,15.6,25.13,South,175,8.7,13.2,17,0.00,,---,0.00,VWS V14.00,2013-02-19 21:04:00,
2013-02-19 14:09:00,58.8,14.1,25.13,SSE,147,20.1,20.1,17,0.00,,---,0.00,VWS V14.00,2013-02-19 21:09:00,
2013-02-19 14:14:00,57.2,12.8,25.13,ESE,120,15.9,19.7,17,0.00,,---,0.00,VWS V14.00,2013-02-19 21:14:00,
2013-02-19 14:19:00,56.8,12.5,25.13,SSE,164,16.8,17.9,17,0.00,,---,0.00,VWS V14.00,2013-02-19 21:19:00,
2013-02-19 14:24:00,57.0,12.7,25.13,SSE,158,14.5,19.2,17,0.00,,---,0.00,VWS V14.00,2013-02-19 21:24:00,
2013-02-19 14:29:00,57.2,12.8,25.13,South,176,17.0,17.0,17,0.00,,---,0.00,VWS V14.00,2013-02-19 21:29:00,
2013-02-19 14:34:00,57.4,12.9,25.13,South,173,15.4,17.9,17,0.00,,---,0.00,VWS V14.00,2013-02-19 21:34:00,
2013-02-19 14:40:00,57.6,13.1,25.13,South,171,15.4,17.0,17,0.00,,---,0.00,VWS V14.00,2013-02-19 21:40:00,
2013-02-19 14:45:00,58.1,13.5,25.13,SSE,166,15.4,21.0,17,0.00,,---,0.00,VWS V14.00,2013-02-19 21:45:00,
2013-02-19 14:50:00,57.6,13.1,25.13,South,191,17.4,17.4,17,0.00,,---,0.00,VWS V14.00,2013-02-19 21:50:00,
2013-02-19 14:55:00,57.2,12.8,25.13,ESE,116,17.4,17.4,17,0.00,,---,0.00,VWS V14.00,2013-02-19 21:55:00,
2013-02-19 15:00:00,57.2,12.8,25.13,SSW,211,17.9,22.4,17,0.00,,---,0.00,VWS V14.00,2013-02-19 22:00:00,
2013-02-19 15:05:00,57.4,12.9,25.13,SSE,160,17.0,19.7,17,0.00,,---,0.00,VWS V14.00,2013-02-19 22:05:00,
2013-02-19 15:10:00,58.1,16.1,25.10,SSE,150,15.9,17.4,19,0.00,,---,0.00,VWS V14.00,2013-02-19 22:10:00,
2013-02-19 15:15:00,59.0,16.8,25.10,SE,146,15.9,16.8,19,0.00,,---,0.00,VWS V14.00,2013-02-19 22:15:00,
2013-02-19 15:20:00,58.1,13.5,25.10,SSE,153,15.0,17.4,17,0.00,,---,0.00,VWS V14.00,2013-02-19 22:20:00,
2013-02-19 15:26:00,57.4,15.5,25.10,SSW,196,13.2,19.7,19,0.00,,---,0.00,VWS V14.00,2013-02-19 22:26:00,
2013-02-19 15:31:00,57.9,15.9,25.10,SSE,147,8.7,14.1,19,0.00,,---,0.00,VWS V14.00,2013-02-19 22:31:00,
2013-02-19 15:36:00,57.9,15.9,25.10,South,189,12.8,12.8,19,0.00,,---,0.00,VWS V14.00,2013-02-19 22:36:00,
2013-02-19 15:41:00,57.9,15.9,25.10,South,175,12.3,13.2,19,0.00,,---,0.00,VWS V14.00,2013-02-19 22:41:00,
2013-02-19 15:46:00,57.9,15.9,25.10,South,183,12.8,15.0,19,0.00,,---,0.00,VWS V14.00,2013-02-19 22:46:00,
2013-02-19 15:51:00,57.4,15.5,25.10,SE,134,15.4,15.4,19,0.00,,---,0.00,VWS V14.00,2013-02-19 22:51:00,
2013-02-19 15:56:00,57.2,15.3,25.10,SSW,194,13.2,13.2,19,0.00,,---,0.00,VWS V14.00,2013-02-19 22:56:00,
2013-02-19 16:01:00,57.2,15.3,25.10,SSE,165,9.2,10.5,19,0.00,,---,0.00,VWS V14.00,2013-02-19 23:01:00,
2013-02-19 16:06:00,56.8,16.2,25.10,SSE,165,14.1,14.1,20,0.00,,---,0.00,VWS V14.00,2013-02-19 23:06:00,
2013-02-19 16:11:00,56.3,15.8,25.10,SSW,197,13.2,15.0,20,0.00,,---,0.00,VWS V14.00,2013-02-19 23:11:00,
2013-02-19 16:17:00,56.3,15.8,25.10,SE,125,17.9,17.9,20,0.00,,---,0.00,VWS V14.00,2013-02-19 23:17:00,
2013-02-19 16:22:00,56.1,15.6,25.10,SSW,193,10.1,12.8,20,0.00,,---,0.00,VWS V14.00,2013-02-19 23:22:00,
2013-02-19 16:27:00,55.9,15.5,25.10,SE,139,12.8,15.9,20,0.00,,---,0.00,VWS V14.00,2013-02-19 23:27:00,
2013-02-19 16:32:00,56.3,15.8,25.10,South,178,15.4,15.4,20,0.00,,---,0.00,VWS V14.00,2013-02-19 23:32:00,
2013-02-19 16:37:00,56.7,16.1,25.10,SSE,158,13.2,13.2,20,0.00,,---,0.00,VWS V14.00,2013-02-19 23:37:00,
2013-02-19 16:42:00,56.5,15.9,25.10,ESE,123,15.9,15.9,20,0.00,,---,0.00,VWS V14.00,2013-02-19 23:42:00,
2013-02-19 16:47:00,55.8,15.3,25.10,SSE,159,15.0,15.0,20,0.00,,---,0.00,VWS V14.00,2013-02-19 23:47:00,
2013-02-19 16:52:00,55.8,15.3,25.10,SSE,163,13.6,19.7,20,0.00,,---,0.00,VWS V14.00,2013-02-19 23:52:00,
2013-02-19 16:57:00,55.2,14.9,25.10,SSE,162,9.6,12.8,20,0.00,,---,0.00,VWS V14.00,2013-02-19 23:57:00,
2013-02-19 17:02:00,55.0,14.7,25.10,SW,221,11.0,11.0,20,0.00,,---,0.00,VWS V14.00,2013-02-20 00:02:00,
2013-02-19 17:08:00,54.7,14.4,25.10,SSE,159,13.2,13.2,20,0.00,,---,0.00,VWS V14.00,2013-02-20 00:08:00,
2013-02-19 17:13:00,55.0,14.7,25.10,South,179,8.3,17.9,20,0.00,,---,0.00,VWS V14.00,2013-02-20 00:13:00,
2013-02-19 17:18:00,55.4,15.0,25.10,SSE,149,10.1,13.2,20,0.00,,---,0.00,VWS V14.00,2013-02-20 00:18:00,
2013-02-19 17:23:00,55.0,14.7,25.10,South,171,17.0,17.0,20,0.00,,---,0.00,VWS V14.00,2013-02-20 00:23:00,
2013-02-19 17:28:00,54.5,14.3,25.10,SSW,205,11.0,12.8,20,0.00,,---,0.00,VWS V14.00,2013-02-20 00:28:00,
2013-02-19 17:33:00,54.0,13.8,25.10,SSW,192,6.7,10.5,20,0.00,,---,0.00,VWS V14.00,2013-02-20 00:33:00,
2013-02-19 17:38:00,53.6,13.5,25.10,SSE,168,9.6,9.6,20,0.00,,---,0.00,VWS V14.00,2013-02-20 00:38:00,
2013-02-19 17:43:00,53.2,14.3,25.10,SSE,152,10.5,13.2,21,0.00,,---,0.00,VWS V14.00,2013-02-20 00:43:00,
2013-02-19 17:49:00,53.1,14.2,25.10,South,188,8.3,15.4,21,0.00,,---,0.00,VWS V14.00,2013-02-20 00:49:00,
2013-02-19 17:54:00,53.1,14.2,25.10,South,180,9.6,10.5,21,0.00,,---,0.00,VWS V14.00,2013-02-20 00:54:00,
2013-02-19 17:59:00,52.9,14.0,25.10,South,182,10.5,12.3,21,0.00,,---,0.00,VWS V14.00,2013-02-20 00:59:00,
2013-02-19 18:04:00,52.9,14.0,25.10,South,183,10.5,10.5,21,0.00,,---,0.00,VWS V14.00,2013-02-20 01:04:00,
2013-02-19 18:09:00,52.9,14.0,25.10,SSW,193,12.3,12.3,21,0.00,,---,0.00,VWS V14.00,2013-02-20 01:09:00,
2013-02-19 18:14:00,52.7,13.9,25.10,SE,142,11.0,11.0,21,0.00,,---,0.00,VWS V14.00,2013-02-20 01:14:00,
2013-02-19 18:19:00,52.5,13.7,25.10,South,179,8.1,10.5,21,0.00,,---,0.00,VWS V14.00,2013-02-20 01:19:00,
2013-02-19 18:24:00,52.3,13.6,25.10,South,190,8.1,11.0,21,0.00,,---,0.00,VWS V14.00,2013-02-20 01:24:00,
2013-02-19 18:30:00,52.2,13.4,25.10,SSW,206,5.8,9.6,21,0.00,,---,0.00,VWS V14.00,2013-02-20 01:30:00,
2013-02-19 18:35:00,51.8,13.1,25.10,South,190,11.4,15.0,21,0.00,,---,0.00,VWS V14.00,2013-02-20 01:35:00,
2013-02-19 18:40:00,52.0,13.3,25.10,SSE,167,16.3,16.3,21,0.00,,---,0.00,VWS V14.00,2013-02-20 01:40:00,
2013-02-19 18:45:00,52.2,13.4,25.10,South,177,13.2,13.2,21,0.00,,---,0.00,VWS V14.00,2013-02-20 01:45:00,
2013-02-19 18:50:00,52.2,13.4,25.10,SE,141,11.0,11.0,21,0.00,,---,0.00,VWS V14.00,2013-02-20 01:50:00,
2013-02-19 18:55:00,52.3,13.6,25.10,South,179,8.3,12.8,21,0.00,,---,0.00,VWS V14.00,2013-02-20 01:55:00,
2013-02-19 19:00:00,52.3,13.6,25.10,SE,141,8.7,8.7,21,0.00,,---,0.00,VWS V14.00,2013-02-20 02:00:00,
2013-02-19 19:05:00,51.4,12.8,25.10,SSE,153,8.3,8.3,21,0.00,,---,0.00,VWS V14.00,2013-02-20 02:05:00,
2013-02-19 19:10:00,50.5,12.1,25.10,SE,144,6.3,6.3,21,0.00,,---,0.00,VWS V14.00,2013-02-20 02:10:00,
2013-02-19 19:15:00,50.0,14.6,25.10,SSE,159,8.3,9.6,24,0.00,,---,0.00,VWS V14.00,2013-02-20 02:15:00,
2013-02-19 19:21:00,49.8,16.3,25.10,SE,145,6.3,10.1,26,0.00,,---,0.00,VWS V14.00,2013-02-20 02:21:00,
2013-02-19 19:26:00,49.8,16.3,25.10,SSE,168,8.1,8.3,26,0.00,,---,0.00,VWS V14.00,2013-02-20 02:26:00,
2013-02-19 19:31:00,49.8,16.3,25.10,South,180,7.6,8.7,26,0.00,,---,0.00,VWS V14.00,2013-02-20 02:31:00,
2013-02-19 19:36:00,50.0,16.5,25.10,SSE,165,11.0,12.8,26,0.00,,---,0.00,VWS V14.00,2013-02-20 02:36:00,
2013-02-19 19:41:00,49.8,16.3,25.07,SSE,155,8.1,8.1,26,0.00,,---,0.00,VWS V14.00,2013-02-20 02:41:00,
2013-02-19 19:46:00,49.6,17.0,25.07,SSE,157,7.6,8.1,27,0.00,,---,0.00,VWS V14.00,2013-02-20 02:46:00,
2013-02-19 19:51:00,49.5,16.9,25.07,South,173,4.9,8.7,27,0.00,,---,0.00,VWS V14.00,2013-02-20 02:51:00,
2013-02-19 19:56:00,49.1,16.6,25.07,SE,141,6.3,8.3,27,0.00,,---,0.00,VWS V14.00,2013-02-20 02:56:00,
2013-02-19 20:01:00,48.7,16.3,25.07,South,177,6.3,7.2,27,0.00,,---,0.00,VWS V14.00,2013-02-20 03:01:00,
2013-02-19 20:07:00,48.7,16.3,25.07,South,177,8.1,8.1,27,0.00,,---,0.00,VWS V14.00,2013-02-20 03:07:00,
2013-02-19 20:12:00,48.6,16.1,25.07,South,183,7.6,8.1,27,0.00,,---,0.00,VWS V14.00,2013-02-20 03:12:00,
2013-02-19 20:17:00,48.6,16.1,25.07,South,180,5.8,8.3,27,0.00,,---,0.00,VWS V14.00,2013-02-20 03:17:00,
2013-02-19 20:22:00,48.2,15.8,25.07,South,185,5.8,6.3,27,0.00,,---,0.00,VWS V14.00,2013-02-20 03:22:00,
2013-02-19 20:27:00,48.2,15.8,25.07,South,190,6.3,6.3,27,0.00,,---,0.00,VWS V14.00,2013-02-20 03:27:00,
2013-02-19 20:32:00,48.2,14.9,25.07,South,177,8.1,8.1,26,0.00,,---,0.00,VWS V14.00,2013-02-20 03:32:00,
2013-02-19 20:37:00,48.7,13.6,25.07,South,182,13.2,13.2,24,0.00,,---,0.00,VWS V14.00,2013-02-20 03:37:00,
2013-02-19 20:42:00,49.6,14.3,25.07,SSW,213,11.9,11.9,24,0.00,,---,0.00,VWS V14.00,2013-02-20 03:42:00,
2013-02-19 20:47:00,50.2,14.8,25.07,South,170,13.2,15.4,24,0.00,,---,0.00,VWS V14.00,2013-02-20 03:47:00,
2013-02-19 20:53:00,50.5,12.1,25.07,SW,214,8.1,11.0,21,0.00,,---,0.00,VWS V14.00,2013-02-20 03:53:00,
2013-02-19 20:58:00,50.7,12.2,25.07,South,172,5.8,13.6,21,0.00,,---,0.00,VWS V14.00,2013-02-20 03:58:00,
2013-02-19 21:03:00,50.9,12.4,25.07,South,172,11.0,14.1,21,0.00,,---,0.00,VWS V14.00,2013-02-20 04:03:00,
2013-02-19 21:08:00,51.3,12.7,25.07,South,173,13.2,13.6,21,0.00,,---,0.00,VWS V14.00,2013-02-20 04:08:00,
2013-02-19 21:13:00,51.3,12.7,25.07,South,169,7.6,11.0,21,0.00,,---,0.00,VWS V14.00,2013-02-20 04:13:00,
2013-02-19 21:18:00,51.1,12.5,25.07,SSE,156,14.1,14.1,21,0.00,,---,0.00,VWS V14.00,2013-02-20 04:18:00,
2013-02-19 21:23:00,51.1,12.5,25.07,SSW,194,8.7,12.8,21,0.00,,---,0.00,VWS V14.00,2013-02-20 04:23:00,
2013-02-19 21:28:00,50.9,12.4,25.07,SW,221,11.0,12.8,21,0.00,,---,0.00,VWS V14.00,2013-02-20 04:28:00,
2013-02-19 21:33:00,50.7,12.2,25.07,SSW,206,8.7,11.0,21,0.00,,---,0.00,VWS V14.00,2013-02-20 04:33:00,
2013-02-19 21:38:00,50.7,12.2,25.07,SSW,208,11.0,11.0,21,0.00,,---,0.00,VWS V14.00,2013-02-20 04:38:00,
2013-02-19 21:44:00,50.4,11.9,25.07,SSW,192,14.5,14.5,21,0.00,,---,0.00,VWS V14.00,2013-02-20 04:44:00,
2013-02-19 21:49:00,50.4,11.9,25.07,South,183,8.7,9.6,21,0.00,,---,0.00,VWS V14.00,2013-02-20 04:49:00,
2013-02-19 21:54:00,50.2,11.8,25.07,South,186,9.6,11.0,21,0.00,,---,0.00,VWS V14.00,2013-02-20 04:54:00,
2013-02-19 21:59:00,50.0,11.6,25.07,SSE,159,6.3,7.6,21,0.00,,---,0.00,VWS V14.00,2013-02-20 04:59:00,
2013-02-19 22:00:00,50.0,11.6,25.07,South,191,8.1,8.1,21,0.00,,---,0.00,VWS V14.00,2013-02-20 05:00:00,
2013-02-19 22:01:00,50.0,11.6,25.07,SW,224,5.8,8.1,21,0.00,,---,0.00,VWS V14.00,2013-02-20 05:01:00,
2013-02-19 22:02:00,50.0,11.6,25.07,SW,215,7.6,8.1,21,0.00,,---,0.00,VWS V14.00,2013-02-20 05:02:00,
2013-02-19 22:05:00,49.8,11.5,25.07,South,186,5.4,6.3,21,0.00,,---,0.00,VWS V14.00,2013-02-20 05:05:00,
2013-02-19 22:10:00,49.6,9.1,25.07,South,190,8.1,12.3,19,0.00,,---,0.00,VWS V14.00,2013-02-20 05:10:00,
2013-02-19 22:15:00,49.8,9.2,25.07,South,181,15.0,15.0,19,0.00,,---,0.00,VWS V14.00,2013-02-20 05:15:00,
2013-02-19 22:20:00,50.0,9.4,25.07,SSW,207,10.5,15.0,19,0.00,,---,0.00,VWS V14.00,2013-02-20 05:20:00,
2013-02-19 22:25:00,50.0,9.4,25.07,South,185,12.8,14.5,19,0.00,,---,0.00,VWS V14.00,2013-02-20 05:25:00,
2013-02-19 22:30:00,50.0,9.4,25.07,South,171,10.5,12.8,19,0.00,,---,0.00,VWS V14.00,2013-02-20 05:30:00,
2013-02-19 22:36:00,49.8,9.2,25.07,SSE,159,11.0,15.4,19,0.00,,---,0.00,VWS V14.00,2013-02-20 05:36:00,
2013-02-19 22:41:00,49.8,9.2,25.07,South,177,10.5,17.4,19,0.00,,---,0.00,VWS V14.00,2013-02-20 05:41:00,
2013-02-19 22:46:00,49.8,9.2,25.07,South,175,8.3,8.3,19,0.00,,---,0.00,VWS V14.00,2013-02-20 05:46:00,
2013-02-19 22:51:00,49.8,9.2,25.07,SSW,202,14.1,14.1,19,0.00,,---,0.00,VWS V14.00,2013-02-20 05:51:00,
2013-02-19 22:56:00,49.8,9.2,25.07,SSW,192,11.0,11.0,19,0.00,,---,0.00,VWS V14.00,2013-02-20 05:56:00,
2013-02-19 23:01:00,49.6,9.1,25.07,SSW,194,11.0,12.8,19,0.00,,---,0.00,VWS V14.00,2013-02-20 06:01:00,
2013-02-19 23:06:00,49.6,9.1,25.07,SSW,199,15.4,17.4,19,0.00,,---,0.00,VWS V14.00,2013-02-20 06:06:00,
2013-02-19 23:11:00,49.6,9.1,25.04,SSW,202,10.5,10.5,19,0.00,,---,0.00,VWS V14.00,2013-02-20 06:11:00,
2013-02-19 23:16:00,49.5,8.9,25.04,SSW,193,11.0,12.8,19,0.00,,---,0.00,VWS V14.00,2013-02-20 06:16:00,
2013-02-19 23:21:00,49.3,8.8,25.04,South,185,12.8,12.8,19,0.00,,---,0.00,VWS V14.00,2013-02-20 06:21:00,
2013-02-19 23:27:00,48.9,8.5,25.04,South,180,11.0,12.8,19,0.00,,---,0.00,VWS V14.00,2013-02-20 06:27:00,
2013-02-19 23:32:00,48.7,8.3,25.04,South,173,12.3,12.3,19,0.00,,---,0.00,VWS V14.00,2013-02-20 06:32:00,
2013-02-19 23:37:00,48.7,8.3,25.04,SSE,166,8.7,17.0,19,0.00,,---,0.00,VWS V14.00,2013-02-20 06:37:00,
2013-02-19 23:42:00,48.6,8.2,25.04,SSE,158,11.0,14.1,19,0.00,,---,0.00,VWS V14.00,2013-02-20 06:42:00,
2013-02-19 23:47:00,48.6,8.2,25.04,SW,222,15.4,15.4,19,0.00,,---,0.00,VWS V14.00,2013-02-20 06:47:00,
2013-02-19 23:52:00,48.2,7.9,25.04,SSW,199,10.5,12.8,19,0.00,,---,0.00,VWS V14.00,2013-02-20 06:52:00,
2013-02-19 23:57:00,47.8,7.6,25.04,SSW,204,13.2,13.2,19,0.00,,---,0.00,VWS V14.00,2013-02-20 06:57:00,